Weather in Staryye Savrushi

Russia / Republic of Tatarstan     54°59′50″N   50°43′59″E
temp.,
°C
wind,
m/s
gust,
m/s
humid.,
%
clouds,
%
prec.,
mm/h
press.,
hPa
HPBL,
m
18 may, tue
tue1800:00+19w1161100 0.1 101714
03:00+16n22855 0.1 101713
06:00+19ne486875 0.1 1017227
09:00+25ese575568 0.1 1017473
12:00+29ese223618 0.0 10171297
15:00+29ne444023 0.0 10161949
18:00+24e610615 0.1 1017347
21:00+20ene512635 0.1 1017234
19 may, wed
wed1900:00+18e514595 0.0 1017373
03:00+15e410745 0.0 1018232
06:00+17e510725 0.0 1018339
09:00+21e68550 0.0 1019890
12:00+25ese68430 0.0 10181480
15:00+26ese67410 0.0 10181850
18:00+23ese47580 0.0 1017213
21:00+18e48725 0.0 1018138
20 may, thu
thu2000:00+16ese4126982 0.0 1019235
03:00+15se413690 0.0 1019254
06:00+17se613663 0.0 1019429
09:00+21sse69515 0.0 1019829
12:00+24se78413 0.0 10181759
15:00+24se783820 0.0 10171864
18:00+21se49525 0.0 1016303
21:00+16ese410630 0.0 1016176
21 may, fri
fri2100:00+14ese410630 0.0 1015153
03:00+13ese496355 0.0 1015146
06:00+16se496350 0.0 1014299
09:00+20sse575869 0.1 1014813
12:00+16se6788100 1.2 1014398
15:00+18sse3475100 3.1 1014568
18:00+17s24815 0.9 1013215
21:00+15sw36890 2.7 1014105
22 may, sat
sat2200:00+13wsw499245 0.0 1016192
03:00+12wsw3794100 0.0 1017146
06:00+14wsw48845 0.0 1018344
09:00+18wsw5665100 0.0 10191065
12:00+20w5656100 0.0 10201334
15:00+21wnw565316 0.0 10201531
18:00+19nw356557 0.0 1021240
21:00+16nw347590 0.0 102272